GW5874 Weather Reports


time (UTC)temp
C
wind
direction
speed
KPH
gust
KPH
rain 1hr
cm
rain 24hr
cm
rain mn
cm
humidity
%
barometer
mb
20260510050136 13 264 0.0 0.0 0.00 0.00 0.00 92 1013.5
20260510045632 13 247 0.0 0.0 0.00 0.00 0.00 92 1013.3
20260510045129 13 286 0.0 0.0 0.00 0.00 0.00 92 1013.2
20260510044625 13 282 0.0 0.0 0.00 0.00 0.00 92 1013.3
20260510044122 13 278 1.6 1.6 0.00 0.00 0.00 92 1013.0
20260510043618 13 262 0.0 0.0 0.00 0.00 0.00 92 1013.1
20260510043115 13 261 0.0 0.0 0.00 0.00 0.00 92 1013.2
20260510042613 13 299 0.0 0.0 0.00 0.00 0.00 91 1013.3
20260510042108 13 263 0.0 0.0 0.00 0.00 0.00 91 1012.8
20260510041605 13 263 0.0 0.0 0.00 0.00 0.00 91 1013.1
20260510041103 13 263 0.0 0.0 0.00 0.00 0.00 91 1012.8
20260510040600 13 305 0.0 0.0 0.00 0.00 0.00 91 1012.8
20260510040055 13 257 0.0 0.0 0.00 0.00 0.00 91 1013.1
20260510035552 13 292 0.0 0.0 0.00 0.00 0.00 91 1013.0
20260510035051 13 301 0.0 0.0 0.00 0.00 0.00 91 1012.5
20260510034550 13 244 0.0 0.0 0.00 0.00 0.00 91 1013.0
20260510034046 13 244 0.0 0.0 0.00 0.00 0.00 91 1012.6
20260510033542 13 244 0.0 0.0 0.00 0.00 0.00 91 1012.5
20260510033041 13 245 0.0 0.0 0.00 0.00 0.00 90 1012.3
20260510032537 13 245 0.0 0.0 0.00 0.00 0.00 89 1012.4
20260510032032 13 245 0.0 0.0 0.00 0.00 0.00 89 1012.2
20260510031527 13 244 0.0 0.0 0.00 0.00 0.00 88 1012.2
20260510031023 14 244 0.0 0.0 0.00 0.00 0.00 88 1012.1
20260510030519 14 215 0.0 0.0 0.00 0.00 0.00 88 1012.2
20260510030017 14 217 0.0 0.0 0.00 0.00 0.00 88 1012.0
20260510025513 15 255 0.0 0.0 0.00 0.00 0.00 89 1011.9
20260510025011 15 255 0.0 0.0 0.00 0.00 0.00 89 1011.9
20260510024508 15 255 0.0 0.0 0.00 0.00 0.00 89 1011.9
20260510024004 15 255 0.0 0.0 0.00 0.00 0.00 88 1011.8
20260510023500 15 255 0.0 0.0 0.00 0.00 0.00 88 1011.8
20260510022957 15 255 0.0 0.0 0.00 0.00 0.00 88 1011.6
20260510022456 15 255 0.0 0.0 0.00 0.00 0.00 88 1011.6
20260510021955 15 255 0.0 0.0 0.00 0.00 0.00 87 1011.3
20260510021453 15 255 0.0 0.0 0.00 0.00 0.00 87 1011.2
20260510020950 16 255 0.0 0.0 0.00 0.00 0.00 87 1011.0
20260510020444 16 255 0.0 0.0 0.00 0.00 0.00 86 1011.1
20260510015940 16 255 0.0 0.0 0.00 0.00 0.00 86 1010.8
20260510015436 16 255 0.0 0.0 0.00 0.00 0.00 85 1010.8
20260510014931 16 255 0.0 0.0 0.00 0.00 0.00 85 1010.8
20260510014429 17 254 0.0 0.0 0.00 0.00 0.00 85 1010.5
20260510013926 17 255 0.0 0.0 0.00 0.00 0.00 84 1010.4
20260510013420 17 255 0.0 0.0 0.00 0.00 0.00 82 1010.4
20260510012916 17 255 0.0 0.0 0.00 0.00 0.00 81 1010.3
20260510012411 18 255 0.0 0.0 0.00 0.00 0.00 80 1010.2
20260510011906 18 255 0.0 0.0 0.00 0.00 0.00 79 1010.1
20260510011401 18 255 0.0 0.0 0.00 0.00 0.00 77 1010.0
20260510010858 19 255 0.0 0.0 0.00 0.00 0.00 76 1009.7
20260510010355 20 255 0.0 0.0 0.00 0.00 0.00 74 1009.9
20260510005852 20 255 0.0 0.0 0.00 0.00 0.00 72 1009.6
20260510005348 20 256 0.0 0.0 0.00 0.00 0.00 71 1009.7
20260510004846 20 256 0.0 0.0 0.00 0.00 0.00 73 1009.7
20260510004343 21 255 0.0 0.0 0.00 0.00 0.00 72 1009.4
20260510003841 21 256 0.0 0.0 0.00 0.00 0.00 70 1009.7
20260510003338 22 255 0.0 0.0 0.00 0.00 0.00 67 1009.4
20260510002836 22 255 0.0 0.0 0.00 0.00 0.00 64 1009.5
20260510002333 22 274 0.0 0.0 0.00 0.00 0.00 60 1009.5
20260510001830 23 276 0.0 0.0 0.00 0.00 0.00 57 1009.4
20260510001328 23 276 0.0 0.0 0.00 0.00 0.00 55 1009.5
20260510000824 24 276 0.0 0.0 0.00 0.00 0.00 50 1009.4
20260510000322 24 276 0.0 0.0 0.00 0.00 0.00 48 1009.6
20260509235819 25 277 0.0 0.0 0.00 0.00 0.00 47 1009.4
20260509235315 25 278 1.6 1.6 0.00 0.00 0.00 45 1009.7
20260509234811 26 277 0.0 0.0 0.00 0.00 0.00 44 1009.6
20260509234308 26 276 0.0 0.0 0.00 0.00 0.00 43 1009.5
20260509233806 26 282 0.0 0.0 0.00 0.00 0.00 42 1009.7
20260509233303 28 282 0.0 0.0 0.00 0.00 0.00 39 1009.9
20260509232759 29 279 0.0 0.0 0.00 0.00 0.00 33 1009.7
20260509232257 30 279 0.0 0.0 0.00 0.00 0.00 37 1009.7
20260509231753 30 279 0.0 0.0 0.00 0.00 0.00 39 1009.9
20260509231250 30 279 0.0 0.0 0.00 0.00 0.00 34 1009.7
20260509230748 29 283 0.0 1.6 0.00 0.00 0.00 40 1009.9
20260509230244 28 265 0.0 0.0 0.00 0.00 0.00 44 1009.7
20260509225739 26 286 0.0 0.0 0.00 0.00 0.00 41 1009.7
20260509225236 26 287 0.0 0.0 0.00 0.00 0.00 40 1009.9
20260509224731 27 276 0.0 0.0 0.00 0.00 0.00 34 1009.9
20260509224229 27 283 1.6 1.6 0.00 0.00 0.00 40 1009.9
20260509223725 27 283 0.0 0.0 0.00 0.00 0.00 44 1009.7
20260509223222 27 279 0.0 0.0 0.00 0.00 0.00 42 1010.0
20260509222719 27 272 0.0 0.0 0.00 0.00 0.00 39 1009.9
20260509222214 27 267 0.0 1.6 0.00 0.00 0.00 37 1010.0
20260509221711 28 271 0.0 1.6 0.00 0.00 0.00 41 1010.1
20260509221207 28 273 0.0 0.0 0.00 0.00 0.00 37 1009.9
20260509220703 28 273 0.0 0.0 0.00 0.00 0.00 35 1010.1
20260509220159 30 276 0.0 0.0 0.00 0.00 0.00 33 1009.9
20260509215655 28 273 0.0 0.0 0.00 0.00 0.00 36 1010.2
20260509215152 29 286 1.6 1.6 0.00 0.00 0.00 33 1010.0
20260509214649 28 285 0.0 1.6 0.00 0.00 0.00 31 1010.1
20260509214146 27 257 0.0 0.0 0.00 0.00 0.00 34 1010.1
20260509213643 27 241 1.6 1.6 0.00 0.00 0.00 35 1010.1
20260509213138 28 305 1.6 4.8 0.00 0.00 0.00 35 1010.1
20260509212636 28 266 1.6 1.6 0.00 0.00 0.00 37 1009.9
20260509212133 29 270 1.6 1.6 0.00 0.00 0.00 40 1010.1
20260509211629 28 259 3.2 4.8 0.00 0.00 0.00 34 1010.1
20260509211126 30 217 6.4 6.4 0.00 0.00 0.00 32 1010.3
20260509210622 30 270 0.0 0.0 0.00 0.00 0.00 36 1010.2
20260509210120 28 269 1.6 1.6 0.00 0.00 0.00 37 1010.4
20260509205614 28 261 0.0 1.6 0.00 0.00 0.00 33 1010.4
20260509205109 28 284 0.0 0.0 0.00 0.00 0.00 33 1010.6
20260509204605 29 237 3.2 4.8 0.00 0.00 0.00 37 1010.6
20260509204102 28 263 0.0 1.6 0.00 0.00 0.00 41 1010.7
20260509203558 28 329 3.2 4.8 0.00 0.00 0.00 32 1010.6
20260509203057 28 290 3.2 4.8 0.00 0.00 0.00 37 1010.8
20260509202556 28 299 3.2 4.8 0.00 0.00 0.00 37 1010.8
20260509202052 28 268 0.0 0.0 0.00 0.00 0.00 32 1010.8
20260509201547 28 278 3.2 4.8 0.00 0.00 0.00 35 1010.8
20260509201045 28 217 4.8 6.4 0.00 0.00 0.00 34 1010.8
20260509200544 27 280 0.0 0.0 0.00 0.00 0.00 39 1010.7
20260509200042 27 295 0.0 0.0 0.00 0.00 0.00 34 1010.8
20260509195537 28 278 0.0 1.6 0.00 0.00 0.00 34 1010.8
20260509195037 28 261 3.2 4.8 0.00 0.00 0.00 36 1011.0
20260509194532 28 267 3.2 4.8 0.00 0.00 0.00 39 1011.0
20260509194030 27 230 1.6 1.6 0.00 0.00 0.00 33 1011.0
20260509193530 27 241 0.0 0.0 0.00 0.00 0.00 34 1011.0
20260509193027 28 225 4.8 6.4 0.00 0.00 0.00 35 1011.1
20260509192524 28 256 1.6 1.6 0.00 0.00 0.00 37 1011.1
20260509192019 28 269 0.0 0.0 0.00 0.00 0.00 38 1011.3
20260509191513 28 275 0.0 1.6 0.00 0.00 0.00 34 1011.2
20260509191009 27 249 1.6 1.6 0.00 0.00 0.00 40 1011.2
20260509190506 27 243 1.6 1.6 0.00 0.00 0.00 33 1011.1
20260509190005 27 271 3.2 4.8 0.00 0.00 0.00 38 1011.3
20260509185501 27 323 3.2 4.8 0.00 0.00 0.00 42 1011.3
20260509184958 27 215 1.6 1.6 0.00 0.00 0.00 42 1011.3
20260509184457 27 205 3.2 4.8 0.00 0.00 0.00 41 1011.2
20260509183953 27 268 1.6 1.6 0.00 0.00 0.00 43 1011.3
20260509183452 26 318 4.8 6.4 0.00 0.00 0.00 35 1011.3
20260509182949 27 297 3.2 4.8 0.00 0.00 0.00 48 1011.2
20260509182445 26 213 3.2 4.8 0.00 0.00 0.00 40 1011.3
20260509181943 26 235 6.4 6.4 0.00 0.00 0.00 35 1011.3
20260509181441 27 269 1.6 1.6 0.00 0.00 0.00 40 1011.5
20260509180939 27 279 1.6 1.6 0.00 0.00 0.00 42 1011.4
20260509180434 26 253 1.6 1.6 0.00 0.00 0.00 44 1011.5
20260509175931 26 227 0.0 0.0 0.00 0.00 0.00 38 1011.5
20260509175427 26 325 1.6 1.6 0.00 0.00 0.00 45 1011.7
20260509174923 26 272 1.6 4.8 0.00 0.00 0.00 42 1011.6
20260509174419 26 273 1.6 1.6 0.00 0.00 0.00 47 1011.6
20260509173915 26 284 1.6 1.6 0.00 0.00 0.00 45 1011.4
20260509173415 26 264 0.0 1.6 0.00 0.00 0.00 50 1011.5
20260509172912 26 272 3.2 4.8 0.00 0.00 0.00 55 1011.5
20260509172409 25 273 3.2 4.8 0.00 0.00 0.00 50 1011.6
20260509171904 25 192 6.4 8.0 0.00 0.00 0.00 50 1011.7
20260509171400 25 92 4.8 6.4 0.00 0.00 0.00 47 1011.7
20260509170857 25 203 4.8 6.4 0.00 0.00 0.00 47 1011.8
20260509170353 26 316 3.2 4.8 0.00 0.00 0.00 48 1011.7
20260509165848 26 270 3.2 4.8 0.00 0.00 0.00 51 1011.9
20260509165342 25 196 1.6 4.8 0.00 0.00 0.00 55 1011.7
20260509164838 25 43 1.6 1.6 0.00 0.00 0.00 55 1011.7
20260509164335 25 186 6.4 6.4 0.00 0.00 0.00 55 1011.7
20260509163831 24 87 0.0 1.6 0.00 0.00 0.00 61 1011.7
20260509163328 25 170 3.2 4.8 0.00 0.00 0.00 59 1011.7
20260509162828 24 240 0.0 0.0 0.00 0.00 0.00 60 1011.6
20260509162325 23 11 1.6 1.6 0.00 0.00 0.00 60 1011.8
20260509161822 24 181 4.8 6.4 0.00 0.00 0.00 59 1011.7
20260509161319 24 197 3.2 6.4 0.00 0.00 0.00 67 1011.6
20260509160814 23 276 1.6 1.6 0.00 0.00 0.00 64 1011.5
20260509160310 23 209 4.8 6.4 0.00 0.00 0.00 62 1011.9
20260509155806 23 249 3.2 4.8 0.00 0.00 0.00 66 1011.6
20260509155306 23 236 3.2 4.8 0.00 0.00 0.00 66 1011.7
20260509154758 23 238 1.6 1.6 0.00 0.00 0.00 69 1011.7
20260509154256 22 156 0.0 0.0 0.00 0.00 0.00 68 1011.6
20260509153753 22 207 3.2 4.8 0.00 0.00 0.00 71 1011.7
20260509153248 22 205 3.2 6.4 0.00 0.00 0.00 71 1011.6
20260509152746 22 253 0.0 1.6 0.00 0.00 0.00 71 1011.6
20260509152242 21 241 4.8 6.4 0.00 0.00 0.00 72 1011.9
20260509151739 21 216 0.0 0.0 0.00 0.00 0.00 75 1011.7
20260509151235 21 226 0.0 1.6 0.00 0.00 0.00 73 1011.7
20260509150734 21 248 4.8 6.4 0.00 0.00 0.00 74 1011.8
20260509150232 20 202 3.2 4.8 0.00 0.00 0.00 74 1011.6
20260509145728 20 197 1.6 1.6 0.00 0.00 0.00 77 1011.6
20260509145223 20 249 8.0 8.0 0.00 0.00 0.00 76 1011.6
20260509144719 19 202 0.0 0.0 0.00 0.00 0.00 77 1011.7
20260509144216 18 251 4.8 6.4 0.00 0.00 0.00 77 1011.8
20260509143714 18 230 3.2 4.8 0.00 0.00 0.00 79 1011.7
20260509143211 18 223 3.2 4.8 0.00 0.00 0.00 77 1011.8
20260509142706 19 217 4.8 6.4 0.00 0.00 0.00 75 1011.8
20260509142203 18 230 3.2 4.8 0.00 0.00 0.00 76 1011.6
20260509141658 18 340 0.0 1.6 0.00 0.00 0.00 81 1011.8
20260509141156 17 218 0.0 1.6 0.00 0.00 0.00 82 1011.8
20260509140652 17 205 3.2 4.8 0.00 0.00 0.00 83 1011.7
20260509140150 17 246 0.0 1.6 0.00 0.00 0.00 82 1011.7
20260509135647 16 235 1.6 1.6 0.00 0.00 0.00 84 1011.6
20260509135146 16 195 1.6 4.8 0.00 0.00 0.00 87 1011.6
20260509134641 15 297 0.0 0.0 0.00 0.00 0.00 90 1011.5
20260509134139 15 341 1.6 1.6 0.00 0.00 0.00 91 1011.5
20260509133636 15 309 0.0 0.0 0.00 0.00 0.00 97 1011.5
20260509133133 14 164 1.6 1.6 0.00 0.00 0.00 99 1011.4
20260509132631 13 123 0.0 0.0 0.00 0.00 0.00 99 1011.3
20260509132130 13 340 0.0 0.0 0.00 0.00 0.00 99 1011.4
20260509131625 13 317 0.0 0.0 0.00 0.00 0.00 99 1011.3
20260509131123 12 165 0.0 0.0 0.00 0.00 0.00 99 1011.5
20260509130618 11 249 0.0 0.0 0.00 0.00 0.00 99 1011.4
20260509130115 10 327 1.6 1.6 0.00 0.00 0.00 99 1011.4
20260509125611 11 336 1.6 1.6 0.00 0.00 0.00 99 1011.5
20260509125108 10 204 0.0 1.6 0.00 0.00 0.00 99 1011.5
20260509124605 10 193 1.6 1.6 0.00 0.00 0.00 99 1011.3
20260509124102 10 254 0.0 0.0 0.00 0.00 0.00 99 1011.0
20260509123600 10 255 0.0 0.0 0.00 0.00 0.00 99 1011.2
20260509123056 9 254 0.0 0.0 0.00 0.00 0.00 99 1011.2
20260509122552 8 254 0.0 0.0 0.00 0.00 0.00 99 1011.2
20260509122050 8 289 0.0 0.0 0.00 0.00 0.00 99 1011.1
20260509121546 8 290 0.0 0.0 0.00 0.00 0.00 99 1011.0
20260509121048 8 290 0.0 0.0 0.00 0.00 0.00 99 1010.8
20260509120542 7 251 0.0 0.0 0.00 0.00 0.00 99 1011.1
20260509120040 7 273 0.0 0.0 0.00 0.00 0.00 99 1010.9
20260509115536 7 271 0.0 0.0 0.00 0.00 0.00 99 1010.9
20260509115034 7 293 0.0 0.0 0.00 0.00 0.00 99 1010.8
20260509114532 7 276 0.0 0.0 0.00 0.00 0.00 99 1010.8
20260509114031 7 227 0.0 0.0 0.00 0.00 0.00 99 1010.7
20260509113529 7 226 0.0 0.0 0.00 0.00 0.00 99 1010.4
20260509113026 7 226 0.0 0.0 0.00 0.00 0.00 99 1010.4
20260509112522 7 226 0.0 0.0 0.00 0.00 0.00 99 1010.4
20260509112019 7 266 0.0 0.0 0.00 0.00 0.00 99 1010.5
20260509111517 7 262 0.0 0.0 0.00 0.00 0.00 99 1010.7
20260509111014 7 262 0.0 0.0 0.00 0.00 0.00 99 1010.5
20260509110510 8 262 0.0 0.0 0.00 0.00 0.00 99 1010.4
20260509110007 8 262 0.0 0.0 0.00 0.00 0.00 99 1010.4
20260509105506 7 260 0.0 0.0 0.00 0.00 0.00 99 1010.6
20260509105003 7 260 0.0 0.0 0.00 0.00 0.00 99 1010.4
20260509104459 8 260 0.0 0.0 0.00 0.00 0.00 99 1010.7
20260509103957 8 260 0.0 0.0 0.00 0.00 0.00 99 1010.4
20260509103454 8 260 0.0 0.0 0.00 0.00 0.00 99 1010.4
20260509102952 8 260 0.0 0.0 0.00 0.00 0.00 98 1010.4
20260509102449 8 261 0.0 0.0 0.00 0.00 0.00 98 1010.5
20260509101946 8 261 0.0 0.0 0.00 0.00 0.00 98 1010.2
20260509101442 8 261 0.0 0.0 0.00 0.00 0.00 98 1010.5
20260509100939 8 261 0.0 0.0 0.00 0.00 0.00 98 1010.4
20260509100437 8 260 0.0 0.0 0.00 0.00 0.00 98 1010.4
20260509095933 8 260 0.0 0.0 0.00 0.00 0.00 98 1010.6
20260509095430 8 260 0.0 0.0 0.00 0.00 0.00 98 1010.5
20260509094927 8 260 0.0 0.0 0.00 0.00 0.00 98 1010.6
20260509094424 8 260 0.0 0.0 0.00 0.00 0.00 98 1010.6
20260509093922 8 286 0.0 0.0 0.00 0.00 0.00 98 1010.6
20260509093419 8 286 0.0 0.0 0.00 0.00 0.00 98 1010.5
20260509092917 8 286 0.0 0.0 0.00 0.00 0.00 98 1010.4
20260509092414 8 286 0.0 0.0 0.00 0.00 0.00 98 1010.6
20260509091913 8 286 0.0 0.0 0.00 0.00 0.00 98 1010.5
20260509091409 9 286 0.0 0.0 0.00 0.00 0.00 98 1010.7
20260509090907 9 286 0.0 0.0 0.00 0.00 0.00 98 1010.4
20260509090403 8 286 0.0 0.0 0.00 0.00 0.00 98 1010.6
20260509085901 9 286 0.0 0.0 0.00 0.00 0.00 98 1010.6
20260509085358 9 286 0.0 0.0 0.00 0.00 0.00 98 1010.7
20260509084854 10 286 0.0 0.0 0.00 0.00 0.00 98 1010.9
20260509084351 10 286 0.0 0.0 0.00 0.00 0.00 98 1010.9
20260509083849 10 286 0.0 0.0 0.00 0.00 0.00 98 1010.9
20260509083345 10 285 0.0 0.0 0.00 0.00 0.00 98 1010.9
20260509082842 10 284 0.0 0.0 0.00 0.00 0.00 98 1010.8
20260509082339 10 284 0.0 0.0 0.00 0.00 0.00 98 1010.9
20260509081837 10 295 0.0 0.0 0.00 0.00 0.00 98 1010.8
20260509081333 10 298 0.0 0.0 0.00 0.00 0.00 97 1010.6
20260509080831 10 293 0.0 0.0 0.00 0.00 0.00 97 1010.6
20260509080329 10 283 0.0 0.0 0.00 0.00 0.00 97 1010.9
20260509075827 10 283 0.0 0.0 0.00 0.00 0.00 97 1011.0
20260509075324 10 284 0.0 0.0 0.00 0.00 0.00 97 1010.7
20260509074821 10 300 0.0 0.0 0.00 0.00 0.00 97 1010.4
20260509074319 10 300 0.0 0.0 0.00 0.00 0.00 97 1010.4
20260509073815 10 300 0.0 0.0 0.00 0.00 0.00 97 1010.5
20260509073311 10 300 0.0 0.0 0.00 0.00 0.00 97 1010.5
20260509072808 10 300 0.0 0.0 0.00 0.00 0.00 97 1010.6
20260509072306 10 300 0.0 0.0 0.00 0.00 0.00 97 1010.7
20260509071801 10 301 0.0 0.0 0.00 0.00 0.00 97 1010.5
20260509071258 10 301 0.0 0.0 0.00 0.00 0.00 97 1010.7
20260509070755 10 282 0.0 0.0 0.00 0.00 0.00 96 1010.6
20260509070251 10 282 0.0 0.0 0.00 0.00 0.00 96 1010.8
20260509065748 10 282 0.0 0.0 0.00 0.00 0.00 96 1010.9
20260509065244 10 282 0.0 0.0 0.00 0.00 0.00 96 1010.6
20260509064741 10 282 0.0 0.0 0.00 0.00 0.00 96 1010.8
20260509064238 10 282 0.0 0.0 0.00 0.00 0.00 96 1010.7
20260509063736 11 282 0.0 0.0 0.00 0.00 0.00 96 1010.9
20260509063232 11 282 0.0 0.0 0.00 0.00 0.00 96 1010.9
20260509062729 11 282 0.0 0.0 0.00 0.00 0.00 95 1010.8
20260509062226 11 282 0.0 0.0 0.00 0.00 0.00 95 1010.9
20260509061723 11 282 0.0 0.0 0.00 0.00 0.00 95 1010.9
20260509061221 11 282 0.0 0.0 0.00 0.00 0.00 95 1010.9
20260509060718 11 282 0.0 0.0 0.00 0.00 0.00 94 1011.0
20260509060214 11 282 0.0 0.0 0.00 0.00 0.00 94 1010.8
20260509055710 11 283 0.0 0.0 0.00 0.00 0.00 94 1011.0
20260509055206 11 282 0.0 0.0 0.00 0.00 0.00 94 1011.1
20260509054703 11 281 0.0 0.0 0.00 0.00 0.00 93 1010.9
20260509054200 12 310 0.0 0.0 0.00 0.00 0.00 93 1011.1
20260509053659 12 311 0.0 0.0 0.00 0.00 0.00 93 1011.0
20260509053155 12 313 1.6 1.6 0.00 0.00 0.00 93 1010.9
20260509052653 12 314 1.6 1.6 0.00 0.00 0.00 93 1010.9
20260509052150 12 292 1.6 1.6 0.00 0.00 0.00 93 1011.0
20260509051648 12 296 0.0 1.6 0.00 0.00 0.00 93 1010.9
20260509051145 12 296 1.6 1.6 0.00 0.00 0.00 92 1011.1
20260509050642 12 290 0.0 0.0 0.00 0.00 0.00 92 1010.9